Weather Roundup
Issued by NWS Chicago, IL

Home | Current Version | Previous Version | Graphics & Text | Print | Product List | Glossary On
Versions: 1 2 3 4 5 6 7 8 9 10 11 12 13 14 15 16 17 18 19 20 21 22 23 24 25 26 27 28 29 30 31 32 33 34 35 36 37 38 39 40 41 42 43 44 45 46 47 48 49 50
000
NZUS59 KLOT 291300
HRRLOT

CHICAGO AREA WEATHER ROUNDUP
NATIONAL WEATHER SERVICE CHICAGO/ROMEOVILLE IL
700 AM CST THU JAN 29 2015

NOTE: "FAIR" INDICATES FEW OR NO CLOUDS BELOW 12,000 FEET WITH NO
SIGNIFICANT WEATHER AND/OR OBSTRUCTIONS TO VISIBILITY.

* THESE STATIONS ARE NOT UNDER NWS QUALITY CONTROL. THEY ALSO MAY NOT
  REPORT WEATHER SUCH AS PRECIPITATION OR FOG.

ILZ005-006-012>014-019>023-291400-
NORTHEAST ILLINOIS

CITY           SKY/WX    TMP DP  RH WIND       PRES   REMARKS
OHARE          CLOUDY    35  28  75 NW10      29.72S WCI  27
MIDWAY         CLOUDY    37  30  75 NW7       29.72R
AURORA         CLOUDY    33  28  81 NW14      29.76R WCI  23
WAUKEGAN       CLOUDY    33  27  78 NW6       29.75R WCI  28
DUPAGE AIRPORT LGT RAIN  34  29  82 NW13      29.74R WCI  25
WHEELING       CLOUDY    35  27  72 NW7       29.76R WCI  29
NORTHERLY IS     N/A     37  29  73 W10         N/A
$$

WIZ051-052-058>065-066-070>072-291400-
SOUTHEAST WISCONSIN

CITY           SKY/WX    TMP DP  RH WIND       PRES   REMARKS
MILWAUKEE      FLURRIES  33  25  72 NW9       29.76R WCI  25
KENOSHA*       CLOUDY    33  27  78 NW8       29.76R WCI  26
RACINE*        CLOUDY    33  26  75 NW8       29.77R WCI  26
WAUKESHA       CLOUDY    30  25  80 NW16      29.78R WCI  19
$$

INZ001>003-010>013-019-020-291400-
NORTHWEST INDIANA

CITY           SKY/WX    TMP DP  RH WIND       PRES   REMARKS
GARY*          NOT AVBL
MICHIGAN CITY* NOT AVBL
RENSSELAER*    NOT AVBL
$$

LMZ740>746-291400-
SOUTHERN LAKE MICHIGAN

STATION/POSITION TIME  SKY/WX   TEMP WIND        PRES    VSBY
                                AIR  DIR/SP/G
                 (UTC)          (F)  (DEG/KT/KT) (MB)    (MI)
HARRISON CRIB    1200            38  200/ 12/ 15   N/A
BURNHAM HARBOR   1300            37  250/  8       N/A
CALUMET HARBOR   1200            36  270/  3/  4   N/A
BURNS HARBOR     NOT AVBL
MICHIGAN CITY    1200            37  150/ 13/ 18   N/A
$$

ABBREVIATIONS USED IN REMARKS
   TC - TEMPERATURE IN CELSIUS
  WCI - WIND CHILL INDEX
   HX - HEAT INDEX
  VSB - VISIBILITY
$$


USA.gov is the U.S. government's official web portal to all federal, state and local government web resources and services.